Showing default

CHINASAT 9A, 42763

Orbit data source: Space-Track

CHINASAT 9A, 42763 is a payload satellite owned by China Satcom (CN) in GEO that was launched on Sun, 18 Jun 2017 UTC via a CHANG ZHENG 3B launch vehicle from the Xichang Space Center, China (XSC). Payload-class satellites include a variety of spacecraft equipped with specific instruments for various scientific and technological missions. These include communications satellites like Starlink; space stations such as the ISS; scientific satellites like the Hubble; Earth observation satellites from companies like Planet Labs, Umbra, and HawkEye 360; GPS; miniature CubeSats for education and research; and military/defense satellites.

Not visible in the next 10 days
Identifier
42763, 2017-035A
Orbit
GEO
Country
Flag of CNCN / PRC
Related business
Manufacturer
CAST?
Mission
Non-operational Civil Communications
Bus & Motor
DFH-4?, DFH-4 LAE
Mass
~5,250 kg wet, ~2,500 kg dry
Launch date (UTC)
2017-06-18 (9 years ago)
Launch vehicle
CHANG ZHENG 3B
Launch site
Xichang Space Center, China (XSC)
Object type
Payload
Rocket body
Debris
Shape & HBR
Box + 2 Pan, 15.0 m
Radar Cross Section
34.063 m², Large (>1 m²)

Expand to show TLE details & history
Last TLE update: 13 hours ago

TLE from 13 hours ago
0 CHINASAT 9A
1 42763U 17035A   26073.01748250 -.00000198  00000-0  00000-0 0  9992
2 42763   4.7387  76.4034 0006018 282.5428 277.6866  0.99779973 32707
Epoch: 2026-03-14T00:25Z
TLE epoch observation values (Epoch: 2026-03-14T00:25:10.487Z)
Latitude
-1.61441°
Longitude
98.57656°
Altitude
35,921.306 km
Speed
3.07 km/s
True Right ascension
18h 26m 03s
True Declination
-1° 36' 46"
Sunlit
Object was in daylight at epoch
Visualization orbit readout
Latitude
Unknown
Longitude
Unknown
Altitude
Unknown
Speed
Unknown
Apparent Right ascension
Unknown
Apparent Declination
Unknown
Sunlit
N/A
Visualization observer readout
Local Sidereal Time
17:54:03
Azimuth
Unknown
Elevation
Unknown
Doppler factor
Unknown
Orbital elements
Apogee altitude
35,951.549 km
Perigee altitude
35,900.631 km
Semi-major axis
42,304.227 km
Eccentricity
0.0006
Inclination
4.7387°
RAAN
76.4034°
Arg. of periapsis
282.5428°
True anomaly
277.61825°
Mean anomaly
277.6866°
Eccentric anomaly
277.65243°
Mean motion
0.24944 °/min
Orbital period
1,443.23 mins
BSTAR
0
Loading maneuver chart data...
Computing Atmospheric mass density...
Loading historical data...
Loading historical data...
Loading historical data...
Loading historical data...
Loading historical data...
Loading historical data...
Loading historical data...
Other satellites on launch #35 in the year 2017 (2017-06-18 UTC)

Documentation

Showing up to 5 results
|